Zurück zum Katalog

SL-14 DEB

AktivPO
NORAD 19176·DEBRIS·🇷🇺 Russia

Gestartet Oct 26, 1978 von Plesetsk Cosmodrome

Loading…

Nächste Überflüge (nächste 24 Stunden)

TLE

AktuellSource: Space-Track

Epoche: Sep 13, 2026, 11:22 UTC

1 19176U 78100T   26256.47387778  .00000101  00000-0  11810-2 0  9997
2 19176  82.0900 258.0915 0148506 280.1247 237.4318 11.96260321671231

Verfolge SL-14 DEB in Echtzeit mit AllMySat

Download on the App Store